Time,TemperatureF,DewpointF,PressureIn,WindDirection,WindDirectionDegrees,WindSpeedMPH,WindSpeedGustMPH,Humidity,HourlyPrecipIn,Conditions,Clouds,dailyrainin,SolarRadiationWatts/m^2,SoftwareType,DateUTC
2013-09-28 00:00:00,49.8,48.4,30.33,NE,43,0.0,0.0,95,0.00,,---,0.00,0.00,VWS V14.01,2013-09-28 04:00:00,
2013-09-28 00:01:00,48.1,47.0,30.33,NE,43,0.0,0.0,96,0.00,,---,0.00,0.00,VWS V14.01,2013-09-28 04:01:00,
2013-09-28 00:06:00,48.1,47.0,30.33,NE,43,0.0,0.0,96,0.00,,---,0.00,0.00,VWS V14.01,2013-09-28 04:06:00,
2013-09-28 00:11:00,48.0,46.9,30.33,NE,43,0.0,0.0,96,0.00,,---,0.00,0.00,VWS V14.01,2013-09-28 04:11:00,
2013-09-28 00:16:00,48.0,46.9,30.33,NE,43,0.0,0.0,96,0.00,,---,0.00,0.00,VWS V14.01,2013-09-28 04:16:00,
2013-09-28 00:21:00,48.0,46.9,30.33,NE,43,0.0,0.0,96,0.00,,---,0.00,0.00,VWS V14.01,2013-09-28 04:21:00,
2013-09-28 00:26:00,47.9,46.8,30.33,NE,43,0.0,0.0,96,0.00,,---,0.00,0.00,VWS V14.01,2013-09-28 04:26:00,
2013-09-28 00:30:00,49.1,48.0,30.33,NE,43,0.0,0.0,96,0.00,,---,0.00,0.00,VWS V14.01,2013-09-28 04:30:00,
2013-09-28 00:31:00,47.9,46.8,30.33,NE,43,0.0,0.0,96,0.00,,---,0.00,0.00,VWS V14.01,2013-09-28 04:31:00,
2013-09-28 00:36:00,47.9,46.8,30.33,NE,43,0.0,0.0,96,0.00,,---,0.00,0.00,VWS V14.01,2013-09-28 04:36:00,
2013-09-28 00:41:00,47.9,46.8,30.33,NE,43,0.0,0.0,96,0.00,,---,0.00,0.00,VWS V14.01,2013-09-28 04:41:00,
2013-09-28 00:46:00,47.9,46.8,30.33,NE,43,0.0,0.0,96,0.00,,---,0.00,0.00,VWS V14.01,2013-09-28 04:46:00,
2013-09-28 00:51:00,47.9,46.8,30.33,NE,43,0.0,0.0,96,0.00,,---,0.00,0.00,VWS V14.01,2013-09-28 04:51:00,
2013-09-28 00:56:00,47.8,47.0,30.33,NE,43,0.0,0.0,97,0.00,,---,0.00,0.00,VWS V14.01,2013-09-28 04:56:00,
2013-09-28 01:00:00,48.1,47.0,30.33,NE,43,0.0,0.0,96,0.00,,---,0.00,0.00,VWS V14.01,2013-09-28 05:00:00,
2013-09-28 01:01:00,47.9,46.8,30.33,NE,43,0.0,0.0,96,0.00,,---,0.00,0.00,VWS V14.01,2013-09-28 05:01:00,
2013-09-28 01:06:00,47.8,47.0,30.33,NE,43,0.0,0.0,97,0.00,,---,0.00,0.00,VWS V14.01,2013-09-28 05:06:00,
2013-09-28 01:11:00,47.8,47.0,30.33,NE,43,0.0,0.0,97,0.00,,---,0.00,0.00,VWS V14.01,2013-09-28 05:11:00,
2013-09-28 01:16:00,47.6,46.5,30.33,NE,43,0.0,0.0,96,0.00,,---,0.00,0.00,VWS V14.01,2013-09-28 05:16:00,
2013-09-28 01:21:00,47.5,46.4,30.33,NE,43,0.0,0.0,96,0.00,,---,0.00,0.00,VWS V14.01,2013-09-28 05:21:00,
2013-09-28 01:26:00,47.3,46.2,30.34,NE,43,0.0,0.0,96,0.00,,---,0.00,0.00,VWS V14.01,2013-09-28 05:26:00,
2013-09-28 01:30:00,47.9,46.8,30.33,NE,43,0.0,0.0,96,0.00,,---,0.00,0.00,VWS V14.01,2013-09-28 05:30:00,
2013-09-28 01:31:00,47.1,46.0,30.34,NE,43,0.0,0.0,96,0.00,,---,0.00,0.00,VWS V14.01,2013-09-28 05:31:00,
2013-09-28 01:36:00,47.0,45.9,30.34,NE,43,0.0,0.0,96,0.00,,---,0.00,0.00,VWS V14.01,2013-09-28 05:36:00,
2013-09-28 01:41:00,46.9,46.1,30.34,NE,43,0.0,0.0,97,0.00,,---,0.00,0.00,VWS V14.01,2013-09-28 05:41:00,
2013-09-28 01:46:00,46.9,45.8,30.34,NE,43,0.0,0.0,96,0.00,,---,0.00,0.00,VWS V14.01,2013-09-28 05:46:00,
2013-09-28 01:51:00,46.7,45.6,30.34,NE,43,0.0,0.0,96,0.00,,---,0.00,0.00,VWS V14.01,2013-09-28 05:51:00,
2013-09-28 01:56:00,46.7,45.6,30.34,NE,43,0.0,0.0,96,0.00,,---,0.00,0.00,VWS V14.01,2013-09-28 05:56:00,
2013-09-28 02:00:00,47.9,46.8,30.33,NE,43,0.0,0.0,96,0.00,,---,0.00,0.00,VWS V14.01,2013-09-28 06:00:00,
2013-09-28 02:01:00,46.5,45.7,30.34,NE,43,0.0,0.0,97,0.00,,---,0.00,0.00,VWS V14.01,2013-09-28 06:01:00,
2013-09-28 02:06:00,46.3,45.2,30.34,NE,43,0.0,0.0,96,0.00,,---,0.00,0.00,VWS V14.01,2013-09-28 06:06:00,
2013-09-28 02:11:00,46.1,45.0,30.34,NE,43,0.0,0.0,96,0.00,,---,0.00,0.00,VWS V14.01,2013-09-28 06:11:00,
2013-09-28 02:16:00,46.0,44.9,30.34,NE,43,0.0,0.0,96,0.00,,---,0.00,0.00,VWS V14.01,2013-09-28 06:16:00,
2013-09-28 02:21:00,45.9,44.8,30.34,NE,43,0.0,0.0,96,0.00,,---,0.00,0.00,VWS V14.01,2013-09-28 06:21:00,
2013-09-28 02:26:00,45.7,44.6,30.34,NE,43,0.0,0.0,96,0.00,,---,0.00,0.00,VWS V14.01,2013-09-28 06:26:00,
2013-09-28 02:30:00,47.1,46.0,30.34,NE,43,0.0,0.0,96,0.00,,---,0.00,0.00,VWS V14.01,2013-09-28 06:30:00,
2013-09-28 02:31:00,45.6,44.5,30.34,NE,43,0.0,0.0,96,0.00,,---,0.00,0.00,VWS V14.01,2013-09-28 06:31:00,
2013-09-28 02:36:00,45.4,44.3,30.34,NE,43,0.0,0.0,96,0.00,,---,0.00,0.00,VWS V14.01,2013-09-28 06:36:00,
2013-09-28 02:41:00,45.3,44.2,30.34,NE,43,0.0,0.0,96,0.00,,---,0.00,0.00,VWS V14.01,2013-09-28 06:41:00,
2013-09-28 02:46:00,45.1,44.0,30.33,NE,43,0.0,0.0,96,0.00,,---,0.00,0.00,VWS V14.01,2013-09-28 06:46:00,
2013-09-28 02:51:00,44.9,43.8,30.33,NE,43,0.0,0.0,96,0.00,,---,0.00,0.00,VWS V14.01,2013-09-28 06:51:00,
2013-09-28 02:56:00,44.7,43.6,30.33,NE,43,0.0,0.0,96,0.00,,---,0.00,0.00,VWS V14.01,2013-09-28 06:56:00,
2013-09-28 03:00:00,46.5,45.7,30.34,NE,43,0.0,0.0,97,0.00,,---,0.00,0.00,VWS V14.01,2013-09-28 07:00:00,
2013-09-28 03:01:00,44.5,43.4,30.33,NE,43,0.0,0.0,96,0.00,,---,0.00,0.00,VWS V14.01,2013-09-28 07:01:00,
2013-09-28 03:06:00,44.3,43.2,30.33,NE,43,0.0,0.0,96,0.00,,---,0.00,0.00,VWS V14.01,2013-09-28 07:06:00,
2013-09-28 03:11:00,44.3,43.2,30.34,NE,43,0.0,0.0,96,0.00,,---,0.00,0.00,VWS V14.01,2013-09-28 07:11:00,
2013-09-28 03:24:00,44.2,43.4,30.34,NE,43,0.0,0.0,97,0.00,,---,0.00,0.00,VWS V14.01,2013-09-28 07:24:00,
2013-09-28 03:29:00,44.0,43.2,30.34,NE,43,0.0,0.0,97,0.00,,---,0.00,0.00,VWS V14.01,2013-09-28 07:29:00,
2013-09-28 03:30:00,45.5,44.4,30.34,NE,43,0.0,0.0,96,0.00,,---,0.00,0.00,VWS V14.01,2013-09-28 07:30:00,
2013-09-28 03:34:00,44.0,43.2,30.34,NE,43,0.0,0.0,97,0.00,,---,0.00,0.00,VWS V14.01,2013-09-28 07:34:00,
2013-09-28 03:39:00,44.0,43.2,30.34,NE,43,0.0,0.0,97,0.00,,---,0.00,0.00,VWS V14.01,2013-09-28 07:39:00,
2013-09-28 03:44:00,44.1,43.3,30.34,NE,43,0.0,0.0,97,0.00,,---,0.00,0.00,VWS V14.01,2013-09-28 07:44:00,
2013-09-28 03:49:00,43.9,43.1,30.33,NE,43,0.0,0.0,97,0.00,,---,0.00,0.00,VWS V14.01,2013-09-28 07:49:00,
2013-09-28 03:54:00,43.6,42.8,30.33,NE,43,0.0,0.0,97,0.00,,---,0.00,0.00,VWS V14.01,2013-09-28 07:54:00,
2013-09-28 03:59:00,43.4,42.6,30.33,NE,43,0.0,0.0,97,0.00,,---,0.00,0.00,VWS V14.01,2013-09-28 07:59:00,
2013-09-28 04:00:00,44.5,43.4,30.33,NE,43,0.0,0.0,96,0.00,,---,0.00,0.00,VWS V14.01,2013-09-28 08:00:00,
2013-09-28 04:04:00,43.3,42.2,30.34,NE,43,0.0,0.0,96,0.00,,---,0.00,0.00,VWS V14.01,2013-09-28 08:04:00,
2013-09-28 04:09:00,43.1,42.0,30.34,NE,43,0.0,0.0,96,0.00,,---,0.00,0.00,VWS V14.01,2013-09-28 08:09:00,
2013-09-28 04:14:00,42.9,42.1,30.34,NE,43,0.0,0.0,97,0.00,,---,0.00,0.00,VWS V14.01,2013-09-28 08:14:00,
2013-09-28 04:19:00,42.9,42.1,30.33,NE,43,0.0,0.0,97,0.00,,---,0.00,0.00,VWS V14.01,2013-09-28 08:19:00,
2013-09-28 04:24:00,42.9,42.1,30.34,NE,43,0.0,0.0,97,0.00,,---,0.00,0.00,VWS V14.01,2013-09-28 08:24:00,
2013-09-28 04:29:00,43.1,42.3,30.34,NE,43,0.0,0.0,97,0.00,,---,0.00,0.00,VWS V14.01,2013-09-28 08:29:00,
2013-09-28 04:30:00,43.9,43.1,30.34,NE,43,0.0,0.0,97,0.00,,---,0.00,0.00,VWS V14.01,2013-09-28 08:30:00,
2013-09-28 04:34:00,43.3,42.5,30.34,NE,43,0.0,0.0,97,0.00,,---,0.00,0.00,VWS V14.01,2013-09-28 08:34:00,
2013-09-28 04:39:00,43.4,42.6,30.34,NE,43,0.0,0.0,97,0.00,,---,0.00,0.00,VWS V14.01,2013-09-28 08:39:00,
2013-09-28 04:44:00,43.5,42.7,30.34,NE,43,0.0,0.0,97,0.00,,---,0.00,0.00,VWS V14.01,2013-09-28 08:44:00,
2013-09-28 04:49:00,43.5,42.7,30.34,NE,43,0.0,0.0,97,0.00,,---,0.00,0.00,VWS V14.01,2013-09-28 08:49:00,
2013-09-28 04:54:00,43.4,42.6,30.34,NE,43,0.0,0.0,97,0.00,,---,0.00,0.00,VWS V14.01,2013-09-28 08:54:00,
2013-09-28 04:59:00,43.4,42.6,30.34,NE,43,0.0,0.0,97,0.00,,---,0.00,0.00,VWS V14.01,2013-09-28 08:59:00,
2013-09-28 05:00:00,43.4,42.3,30.34,NE,43,0.0,0.0,96,0.00,,---,0.00,0.00,VWS V14.01,2013-09-28 09:00:00,
2013-09-28 05:04:00,43.4,42.6,30.34,NE,43,0.0,0.0,97,0.00,,---,0.00,0.00,VWS V14.01,2013-09-28 09:04:00,
2013-09-28 05:09:00,43.2,42.4,30.34,NE,43,0.0,0.0,97,0.00,,---,0.00,0.00,VWS V14.01,2013-09-28 09:09:00,
2013-09-28 05:14:00,43.1,42.3,30.35,NE,43,0.0,0.0,97,0.00,,---,0.00,0.00,VWS V14.01,2013-09-28 09:14:00,
2013-09-28 05:19:00,43.0,42.2,30.35,NE,43,0.0,0.0,97,0.00,,---,0.00,0.00,VWS V14.01,2013-09-28 09:19:00,
2013-09-28 05:24:00,43.0,42.2,30.35,NE,43,0.0,0.0,97,0.00,,---,0.00,0.00,VWS V14.01,2013-09-28 09:24:00,
2013-09-28 05:29:00,43.3,42.5,30.35,NE,43,0.0,0.0,97,0.00,,---,0.00,0.00,VWS V14.01,2013-09-28 09:29:00,
2013-09-28 05:30:00,43.2,42.4,30.34,NE,43,0.0,0.0,97,0.00,,---,0.00,0.00,VWS V14.01,2013-09-28 09:30:00,
2013-09-28 05:34:00,43.5,42.7,30.35,NE,43,0.0,0.0,97,0.00,,---,0.00,0.00,VWS V14.01,2013-09-28 09:34:00,
2013-09-28 05:39:00,43.5,42.7,30.36,NE,43,0.0,0.0,97,0.00,,---,0.00,0.00,VWS V14.01,2013-09-28 09:39:00,
2013-09-28 05:44:00,43.3,42.5,30.36,NE,43,0.0,0.0,97,0.00,,---,0.00,0.00,VWS V14.01,2013-09-28 09:44:00,
2013-09-28 05:49:00,43.2,42.4,30.36,NE,43,0.0,0.0,97,0.00,,---,0.00,0.00,VWS V14.01,2013-09-28 09:49:00,
2013-09-28 05:54:00,42.9,42.1,30.36,NE,43,0.0,0.0,97,0.00,,---,0.00,0.00,VWS V14.01,2013-09-28 09:54:00,
2013-09-28 05:59:00,42.7,41.9,30.36,NE,43,0.0,0.0,97,0.00,,---,0.00,0.00,VWS V14.01,2013-09-28 09:59:00,
2013-09-28 06:00:00,43.4,42.6,30.34,NE,43,0.0,0.0,97,0.00,,---,0.00,0.00,VWS V14.01,2013-09-28 10:00:00,
2013-09-28 06:04:00,42.6,41.8,30.36,NE,43,0.0,0.0,97,0.00,,---,0.00,0.00,VWS V14.01,2013-09-28 10:04:00,
2013-09-28 06:09:00,42.4,41.6,30.36,NE,43,0.0,0.0,97,0.00,,---,0.00,0.00,VWS V14.01,2013-09-28 10:09:00,
2013-09-28 06:14:00,42.4,41.6,30.36,NE,43,0.0,0.0,97,0.00,,---,0.00,0.00,VWS V14.01,2013-09-28 10:14:00,
2013-09-28 06:19:00,42.5,41.7,30.36,NE,43,0.0,0.0,97,0.00,,---,0.00,0.00,VWS V14.01,2013-09-28 10:19:00,
2013-09-28 06:24:00,42.4,41.6,30.36,NE,43,0.0,0.0,97,0.00,,---,0.00,0.00,VWS V14.01,2013-09-28 10:24:00,
2013-09-28 06:29:00,42.3,41.5,30.37,NE,43,0.0,0.0,97,0.00,,---,0.00,0.00,VWS V14.01,2013-09-28 10:29:00,
2013-09-28 06:30:00,43.4,42.6,30.35,NE,43,0.0,0.0,97,0.00,,---,0.00,0.00,VWS V14.01,2013-09-28 10:30:00,
2013-09-28 06:34:00,42.0,41.2,30.37,NE,43,0.0,0.0,97,0.00,,---,0.00,0.00,VWS V14.01,2013-09-28 10:34:00,
2013-09-28 06:39:00,41.8,41.0,30.37,NE,43,0.0,0.0,97,0.00,,---,0.00,0.00,VWS V14.01,2013-09-28 10:39:00,
2013-09-28 06:44:00,41.7,40.9,30.37,NE,43,0.0,0.0,97,0.00,,---,0.00,0.00,VWS V14.01,2013-09-28 10:44:00,
2013-09-28 06:49:00,41.6,40.8,30.37,NE,43,0.0,0.0,97,0.00,,---,0.00,0.00,VWS V14.01,2013-09-28 10:49:00,
2013-09-28 06:54:00,41.5,40.7,30.37,NE,43,0.0,0.0,97,0.00,,---,0.00,5.00,VWS V14.01,2013-09-28 10:54:00,
2013-09-28 06:59:00,41.5,40.7,30.38,NE,43,0.0,0.0,97,0.00,,---,0.00,7.00,VWS V14.01,2013-09-28 10:59:00,
2013-09-28 07:00:00,42.6,41.8,30.36,NE,43,0.0,0.0,97,0.00,,---,0.00,0.00,VWS V14.01,2013-09-28 11:00:00,
2013-09-28 07:04:00,41.5,40.7,30.38,NE,43,0.0,0.0,97,0.00,,---,0.00,9.00,VWS V14.01,2013-09-28 11:04:00,
2013-09-28 07:09:00,41.5,40.7,30.38,NE,43,0.0,0.0,97,0.00,,---,0.00,11.00,VWS V14.01,2013-09-28 11:09:00,
2013-09-28 07:14:00,41.4,40.6,30.38,NE,43,0.0,0.0,97,0.00,,---,0.00,16.00,VWS V14.01,2013-09-28 11:14:00,
2013-09-28 07:19:00,41.5,40.7,30.38,NE,43,0.0,0.0,97,0.00,,---,0.00,26.00,VWS V14.01,2013-09-28 11:19:00,
2013-09-28 07:30:00,41.6,40.8,30.38,NE,43,0.0,0.0,97,0.00,,---,0.00,32.00,VWS V14.01,2013-09-28 11:30:00,
2013-09-28 07:35:00,43.0,42.5,30.38,NE,43,0.0,0.0,98,0.00,,---,0.00,69.00,VWS V14.01,2013-09-28 11:35:00,
2013-09-28 07:40:00,43.9,43.4,30.38,NE,43,0.0,0.0,98,0.00,,---,0.00,83.00,VWS V14.01,2013-09-28 11:40:00,
2013-09-28 07:45:00,44.6,44.1,30.38,NE,43,0.0,0.0,98,0.00,,---,0.00,95.00,VWS V14.01,2013-09-28 11:45:00,
2013-09-28 07:50:00,45.1,44.6,30.38,NE,43,0.0,0.0,98,0.00,,---,0.00,109.00,VWS V14.01,2013-09-28 11:50:00,
2013-09-28 07:55:00,45.8,45.3,30.38,NE,43,0.0,0.0,98,0.00,,---,0.00,127.00,VWS V14.01,2013-09-28 11:55:00,
2013-09-28 08:00:00,46.6,46.1,30.38,NE,43,0.0,0.0,98,0.00,,---,0.00,142.00,VWS V14.01,2013-09-28 12:00:00,
2013-09-28 08:05:00,47.4,46.9,30.38,NE,43,0.0,0.0,98,0.00,,---,0.00,160.00,VWS V14.01,2013-09-28 12:05:00,
2013-09-28 08:10:00,48.2,47.7,30.38,NE,43,0.0,0.0,98,0.00,,---,0.00,178.00,VWS V14.01,2013-09-28 12:10:00,
2013-09-28 08:15:00,49.0,48.5,30.38,NE,43,0.0,0.0,98,0.00,,---,0.00,192.00,VWS V14.01,2013-09-28 12:15:00,
2013-09-28 08:20:00,49.9,49.4,30.38,NE,43,0.0,0.0,98,0.00,,---,0.00,209.00,VWS V14.01,2013-09-28 12:20:00,
2013-09-28 08:25:00,50.2,49.7,30.38,NE,43,0.0,0.0,98,0.00,,---,0.00,227.00,VWS V14.01,2013-09-28 12:25:00,
2013-09-28 08:30:00,51.3,50.8,30.38,NE,43,0.0,0.0,98,0.00,,---,0.00,244.00,VWS V14.01,2013-09-28 12:30:00,
2013-09-28 08:35:00,52.4,51.6,30.38,NE,43,0.0,0.0,97,0.00,,---,0.00,267.00,VWS V14.01,2013-09-28 12:35:00,
2013-09-28 08:40:00,52.9,51.8,30.38,NE,43,0.0,0.0,96,0.00,,---,0.00,288.00,VWS V14.01,2013-09-28 12:40:00,
2013-09-28 08:45:00,53.2,51.8,30.38,NE,43,0.0,0.0,95,0.00,,---,0.00,302.00,VWS V14.01,2013-09-28 12:45:00,
2013-09-28 08:50:00,53.9,52.5,30.38,NE,43,0.0,0.0,95,0.00,,---,0.00,315.00,VWS V14.01,2013-09-28 12:50:00,
2013-09-28 08:55:00,54.6,52.9,30.38,NE,43,0.0,0.0,94,0.00,,---,0.00,329.00,VWS V14.01,2013-09-28 12:55:00,
2013-09-28 09:00:00,55.2,52.9,30.38,NE,43,0.0,0.0,92,0.00,,---,0.00,341.00,VWS V14.01,2013-09-28 13:00:00,
2013-09-28 09:05:00,55.7,52.5,30.38,NE,43,0.0,0.0,89,0.00,,---,0.00,357.00,VWS V14.01,2013-09-28 13:05:00,
2013-09-28 09:10:00,56.1,52.6,30.38,NE,43,0.0,0.0,88,0.00,,---,0.00,371.00,VWS V14.01,2013-09-28 13:10:00,
2013-09-28 09:15:00,56.6,53.1,30.38,NE,43,0.0,0.0,88,0.00,,---,0.00,387.00,VWS V14.01,2013-09-28 13:15:00,
2013-09-28 09:20:00,57.2,52.7,30.38,NE,43,0.0,0.0,85,0.00,,---,0.00,401.00,VWS V14.01,2013-09-28 13:20:00,
2013-09-28 09:25:00,58.0,53.5,30.39,West,277,0.0,2.0,85,0.00,,---,0.00,415.00,VWS V14.01,2013-09-28 13:25:00,
2013-09-28 09:30:00,58.7,53.6,30.39,West,277,0.0,2.0,83,0.00,,---,0.00,425.00,VWS V14.01,2013-09-28 13:30:00,
2013-09-28 09:35:00,59.2,53.4,30.39,West,277,0.0,0.0,81,0.00,,---,0.00,439.00,VWS V14.01,2013-09-28 13:35:00,
2013-09-28 09:40:00,59.9,54.1,30.39,West,278,0.0,1.0,81,0.00,,---,0.00,452.00,VWS V14.01,2013-09-28 13:40:00,
2013-09-28 09:45:00,60.9,55.4,30.39,West,278,0.0,1.0,82,0.00,,---,0.00,466.00,VWS V14.01,2013-09-28 13:45:00,
2013-09-28 09:50:00,61.2,55.3,30.38,West,278,1.0,2.0,81,0.00,,---,0.00,480.00,VWS V14.01,2013-09-28 13:50:00,
2013-09-28 09:55:00,60.7,54.5,30.39,West,279,0.0,4.0,80,0.00,,---,0.00,492.00,VWS V14.01,2013-09-28 13:55:00,
2013-09-28 10:00:00,60.8,54.9,30.39,West,279,0.0,4.0,81,0.00,,---,0.00,503.00,VWS V14.01,2013-09-28 14:00:00,
2013-09-28 10:05:00,61.2,54.6,30.39,West,279,0.0,1.0,79,0.00,,---,0.00,515.00,VWS V14.01,2013-09-28 14:05:00,
2013-09-28 10:10:00,61.7,55.5,30.39,West,279,2.0,2.0,80,0.00,,---,0.00,527.00,VWS V14.01,2013-09-28 14:10:00,
2013-09-28 10:15:00,62.1,55.2,30.39,West,279,0.0,3.0,78,0.00,,---,0.00,536.00,VWS V14.01,2013-09-28 14:15:00,
2013-09-28 10:20:00,62.4,55.5,30.39,West,280,0.0,3.0,78,0.00,,---,0.00,548.00,VWS V14.01,2013-09-28 14:20:00,
2013-09-28 10:25:00,62.8,56.2,30.39,West,280,0.0,3.0,79,0.00,,---,0.00,559.00,VWS V14.01,2013-09-28 14:25:00,
2013-09-28 10:30:00,63.2,56.2,30.38,West,280,0.0,3.0,78,0.00,,---,0.00,568.00,VWS V14.01,2013-09-28 14:30:00,
2013-09-28 10:35:00,63.6,55.9,30.38,WNW,288,3.0,5.0,76,0.00,,---,0.00,578.00,VWS V14.01,2013-09-28 14:35:00,
2013-09-28 10:40:00,63.8,57.2,30.38,WNW,288,0.0,5.0,79,0.00,,---,0.00,589.00,VWS V14.01,2013-09-28 14:40:00,
2013-09-28 10:45:00,63.8,55.7,30.38,WNW,296,2.0,5.0,75,0.00,,---,0.00,596.00,VWS V14.01,2013-09-28 14:45:00,
2013-09-28 10:50:00,63.8,56.1,30.38,WSW,241,0.0,5.0,76,0.00,,---,0.00,605.00,VWS V14.01,2013-09-28 14:50:00,
2013-09-28 10:55:00,64.0,56.3,30.38,WNW,294,2.0,5.0,76,0.00,,---,0.00,615.00,VWS V14.01,2013-09-28 14:55:00,
2013-09-28 11:00:00,64.3,57.7,30.38,WNW,300,0.0,5.0,79,0.00,,---,0.00,622.00,VWS V14.01,2013-09-28 15:00:00,
2013-09-28 11:10:00,64.3,57.7,30.38,WNW,300,0.0,5.0,79,0.00,,---,0.00,622.00,VWS V14.01,2013-09-28 15:10:00,
2013-09-28 11:15:00,64.9,56.8,30.38,WNW,292,0.0,6.0,75,0.00,,---,0.00,643.00,VWS V14.01,2013-09-28 15:15:00,
2013-09-28 11:20:00,65.3,57.2,30.38,WNW,282,5.0,6.0,75,0.00,,---,0.00,652.00,VWS V14.01,2013-09-28 15:20:00,
2013-09-28 11:25:00,65.5,57.0,30.37,WNW,301,3.0,6.0,74,0.00,,---,0.00,657.00,VWS V14.01,2013-09-28 15:25:00,
2013-09-28 11:30:00,65.6,57.5,30.37,West,269,4.0,6.0,75,0.00,,---,0.00,664.00,VWS V14.01,2013-09-28 15:30:00,
2013-09-28 11:35:00,65.9,57.4,30.37,WNW,282,0.0,5.0,74,0.00,,---,0.00,671.00,VWS V14.01,2013-09-28 15:35:00,
2013-09-28 11:40:00,66.0,57.5,30.37,WNW,299,6.0,7.0,74,0.00,,---,0.00,675.00,VWS V14.01,2013-09-28 15:40:00,
2013-09-28 11:45:00,66.0,57.1,30.37,West,269,3.0,8.0,73,0.00,,---,0.00,677.00,VWS V14.01,2013-09-28 15:45:00,
2013-09-28 11:50:00,66.1,57.2,30.37,WSW,237,4.0,8.0,73,0.00,,---,0.00,684.00,VWS V14.01,2013-09-28 15:50:00,
2013-09-28 11:55:00,66.3,57.4,30.37,West,269,5.0,8.0,73,0.00,,---,0.00,687.00,VWS V14.01,2013-09-28 15:55:00,
2013-09-28 12:00:00,66.4,57.5,30.37,WNW,294,0.0,8.0,73,0.00,,---,0.00,693.00,VWS V14.01,2013-09-28 16:00:00,
2013-09-28 12:05:00,66.7,57.8,30.37,West,267,0.0,3.0,73,0.00,,---,0.00,694.00,VWS V14.01,2013-09-28 16:05:00,
2013-09-28 12:10:00,66.9,58.0,30.37,West,273,4.0,7.0,73,0.00,,---,0.00,700.00,VWS V14.01,2013-09-28 16:10:00,
2013-09-28 12:15:00,67.1,57.4,30.36,West,280,2.0,9.0,71,0.00,,---,0.00,707.00,VWS V14.01,2013-09-28 16:15:00,
2013-09-28 12:20:00,67.0,57.7,30.36,WNW,288,2.0,9.0,72,0.00,,---,0.00,708.00,VWS V14.01,2013-09-28 16:20:00,
2013-09-28 12:25:00,66.8,56.7,30.36,West,259,3.0,9.0,70,0.00,,---,0.00,714.00,VWS V14.01,2013-09-28 16:25:00,
2013-09-28 12:30:00,67.1,57.4,30.36,WSW,238,5.0,9.0,71,0.00,,---,0.00,726.00,VWS V14.01,2013-09-28 16:30:00,
2013-09-28 12:35:00,67.3,56.8,30.36,West,263,4.0,8.0,69,0.00,,---,0.00,733.00,VWS V14.01,2013-09-28 16:35:00,
2013-09-28 12:40:00,67.4,57.7,30.36,West,261,0.0,8.0,71,0.00,,---,0.00,744.00,VWS V14.01,2013-09-28 16:40:00,
2013-09-28 12:45:00,68.1,58.0,30.36,WSW,253,3.0,8.0,70,0.00,,---,0.00,749.00,VWS V14.01,2013-09-28 16:45:00,
2013-09-28 12:50:00,68.1,57.2,30.35,West,280,2.0,8.0,68,0.00,,---,0.00,752.00,VWS V14.01,2013-09-28 16:50:00,
2013-09-28 12:55:00,68.3,57.8,30.35,West,269,3.0,8.0,69,0.00,,---,0.00,833.00,VWS V14.01,2013-09-28 16:55:00,
2013-09-28 13:00:00,68.6,57.2,30.35,West,263,5.0,8.0,67,0.00,,---,0.00,800.00,VWS V14.01,2013-09-28 17:00:00,
2013-09-28 13:05:00,68.9,57.5,30.35,SSW,200,0.0,5.0,67,0.00,,---,0.00,269.00,VWS V14.01,2013-09-28 17:05:00,
2013-09-28 13:10:00,69.1,56.8,30.34,West,271,1.0,8.0,65,0.00,,---,0.00,269.00,VWS V14.01,2013-09-28 17:10:00,
2013-09-28 13:15:00,68.7,56.9,30.34,West,262,3.0,8.0,66,0.00,,---,0.00,113.00,VWS V14.01,2013-09-28 17:15:00,
2013-09-28 13:20:00,68.0,56.2,30.34,WNW,288,3.0,9.0,66,0.00,,---,0.00,121.00,VWS V14.01,2013-09-28 17:20:00,
2013-09-28 13:25:00,67.4,56.5,30.34,WNW,293,0.0,9.0,68,0.00,,---,0.00,132.00,VWS V14.01,2013-09-28 17:25:00,
2013-09-28 13:30:00,67.4,57.7,30.34,WSW,254,0.0,9.0,71,0.00,,---,0.00,116.00,VWS V14.01,2013-09-28 17:30:00,
2013-09-28 13:35:00,67.4,56.9,30.34,WSW,240,2.0,5.0,69,0.00,,---,0.00,149.00,VWS V14.01,2013-09-28 17:35:00,
2013-09-28 13:40:00,67.4,57.7,30.33,West,279,0.0,5.0,71,0.00,,---,0.00,301.00,VWS V14.01,2013-09-28 17:40:00,
2013-09-28 13:45:00,68.1,57.6,30.33,WSW,258,4.0,6.0,69,0.00,,---,0.00,251.00,VWS V14.01,2013-09-28 17:45:00,
2013-09-28 13:50:00,68.5,57.5,30.33,WSW,254,0.0,8.0,68,0.00,,---,0.00,223.00,VWS V14.01,2013-09-28 17:50:00,
2013-09-28 13:55:00,69.1,56.8,30.33,WSW,242,3.0,8.0,65,0.00,,---,0.00,258.00,VWS V14.01,2013-09-28 17:55:00,
2013-09-28 14:00:00,69.7,56.6,30.33,WNW,302,0.0,8.0,63,0.00,,---,0.00,860.00,VWS V14.01,2013-09-28 18:00:00,
2013-09-28 14:05:00,70.1,56.9,30.33,ENE,73,2.0,2.0,63,0.00,,---,0.00,849.00,VWS V14.01,2013-09-28 18:05:00,
2013-09-28 14:10:00,70.8,56.7,30.32,West,276,2.0,3.0,61,0.00,,---,0.00,828.00,VWS V14.01,2013-09-28 18:10:00,
2013-09-28 14:15:00,70.6,57.0,30.32,West,276,0.0,3.0,62,0.00,,---,0.00,236.00,VWS V14.01,2013-09-28 18:15:00,
2013-09-28 14:20:00,70.2,57.9,30.32,West,276,0.0,3.0,65,0.00,,---,0.00,230.00,VWS V14.01,2013-09-28 18:20:00,
2013-09-28 14:25:00,69.6,57.3,30.32,West,276,0.0,3.0,65,0.00,,---,0.00,202.00,VWS V14.01,2013-09-28 18:25:00,
2013-09-28 14:30:00,69.4,57.6,30.32,West,276,0.0,3.0,66,0.00,,---,0.00,227.00,VWS V14.01,2013-09-28 18:30:00,
2013-09-28 14:35:00,69.3,57.5,30.32,West,276,0.0,2.0,66,0.00,,---,0.00,229.00,VWS V14.01,2013-09-28 18:35:00,
2013-09-28 14:40:00,69.6,59.0,30.31,West,276,1.0,2.0,69,0.00,,---,0.00,835.00,VWS V14.01,2013-09-28 18:40:00,
2013-09-28 14:45:00,70.1,59.1,30.31,West,267,0.0,4.0,68,0.00,,---,0.00,260.00,VWS V14.01,2013-09-28 18:45:00,
2013-09-28 14:50:00,70.8,58.5,30.31,ENE,78,3.0,4.0,65,0.00,,---,0.00,148.00,VWS V14.01,2013-09-28 18:50:00,
2013-09-28 14:55:00,70.6,58.3,30.31,ENE,78,0.0,4.0,65,0.00,,---,0.00,118.00,VWS V14.01,2013-09-28 18:55:00,
2013-09-28 15:00:00,70.1,58.2,30.31,ENE,78,0.0,4.0,66,0.00,,---,0.00,114.00,VWS V14.01,2013-09-28 19:00:00,
2013-09-28 15:05:00,69.7,57.8,30.31,ENE,78,0.0,0.0,66,0.00,,---,0.00,65.00,VWS V14.01,2013-09-28 19:05:00,
2013-09-28 15:10:00,69.4,57.6,30.31,ENE,78,0.0,1.0,66,0.00,,---,0.00,69.00,VWS V14.01,2013-09-28 19:10:00,
2013-09-28 15:15:00,69.2,58.2,30.31,ENE,78,2.0,2.0,68,0.00,,---,0.00,79.00,VWS V14.01,2013-09-28 19:15:00,
2013-09-28 15:20:00,68.5,57.5,30.31,West,277,0.0,4.0,68,0.00,,---,0.00,113.00,VWS V14.01,2013-09-28 19:20:00,
2013-09-28 15:25:00,68.0,57.9,30.31,West,277,0.0,4.0,70,0.00,,---,0.00,559.00,VWS V14.01,2013-09-28 19:25:00,
2013-09-28 15:30:00,68.6,58.4,30.31,West,277,0.0,4.0,70,0.00,,---,0.00,561.00,VWS V14.01,2013-09-28 19:30:00,
2013-09-28 15:35:00,69.2,58.2,30.31,WNW,292,2.0,3.0,68,0.00,,---,0.00,97.00,VWS V14.01,2013-09-28 19:35:00,
2013-09-28 15:40:00,69.7,59.1,30.31,WSW,252,1.0,5.0,69,0.00,,---,0.00,520.00,VWS V14.01,2013-09-28 19:40:00,
2013-09-28 15:45:00,70.4,58.1,30.31,WNW,287,5.0,7.0,65,0.00,,---,0.00,522.00,VWS V14.01,2013-09-28 19:45:00,
2013-09-28 15:50:00,70.7,57.9,30.31,SW,236,0.0,7.0,64,0.00,,---,0.00,519.00,VWS V14.01,2013-09-28 19:50:00,
2013-09-28 15:55:00,70.8,58.5,30.31,WSW,238,0.0,7.0,65,0.00,,---,0.00,461.00,VWS V14.01,2013-09-28 19:55:00,
2013-09-28 16:00:00,71.0,57.8,30.31,NW,307,0.0,7.0,63,0.00,,---,0.00,446.00,VWS V14.01,2013-09-28 20:00:00,
2013-09-28 16:05:00,71.1,57.4,30.30,WNW,292,0.0,4.0,62,0.00,,---,0.00,443.00,VWS V14.01,2013-09-28 20:05:00,
2013-09-28 16:10:00,71.3,58.1,30.30,NW,307,0.0,6.0,63,0.00,,---,0.00,417.00,VWS V14.01,2013-09-28 20:10:00,
2013-09-28 16:15:00,71.5,57.8,30.30,WNW,302,0.0,6.0,62,0.00,,---,0.00,388.00,VWS V14.01,2013-09-28 20:15:00,
2013-09-28 16:20:00,71.5,57.8,30.30,WNW,295,0.0,6.0,62,0.00,,---,0.00,390.00,VWS V14.01,2013-09-28 20:20:00,
2013-09-28 16:25:00,71.7,58.0,30.30,WNW,295,3.0,6.0,62,0.00,,---,0.00,399.00,VWS V14.01,2013-09-28 20:25:00,
2013-09-28 16:30:00,71.9,58.6,30.30,WNW,295,2.0,6.0,63,0.00,,---,0.00,364.00,VWS V14.01,2013-09-28 20:30:00,
2013-09-28 16:35:00,71.8,58.1,30.30,West,280,2.0,5.0,62,0.00,,---,0.00,345.00,VWS V14.01,2013-09-28 20:35:00,
2013-09-28 16:40:00,71.8,59.0,30.30,West,280,0.0,5.0,64,0.00,,---,0.00,295.00,VWS V14.01,2013-09-28 20:40:00,
2013-09-28 16:45:00,71.7,58.0,30.30,West,280,0.0,5.0,62,0.00,,---,0.00,336.00,VWS V14.01,2013-09-28 20:45:00,
2013-09-28 16:50:00,71.7,58.0,30.30,West,280,1.0,5.0,62,0.00,,---,0.00,308.00,VWS V14.01,2013-09-28 20:50:00,
2013-09-28 16:55:00,71.6,58.3,30.30,West,280,0.0,5.0,63,0.00,,---,0.00,278.00,VWS V14.01,2013-09-28 20:55:00,
2013-09-28 17:00:00,71.4,58.6,30.30,West,280,0.0,5.0,64,0.00,,---,0.00,65.00,VWS V14.01,2013-09-28 21:00:00,
2013-09-28 17:05:00,70.9,58.1,30.30,West,280,0.0,0.0,64,0.00,,---,0.00,248.00,VWS V14.01,2013-09-28 21:05:00,
2013-09-28 17:10:00,70.2,57.9,30.30,NE,55,0.0,0.0,65,0.00,,---,0.00,241.00,VWS V14.01,2013-09-28 21:10:00,
2013-09-28 17:15:00,69.5,57.7,30.30,NE,55,0.0,0.0,66,0.00,,---,0.00,72.00,VWS V14.01,2013-09-28 21:15:00,
2013-09-28 17:20:00,68.7,57.3,30.30,NE,55,0.0,0.0,67,0.00,,---,0.00,32.00,VWS V14.01,2013-09-28 21:20:00,
2013-09-28 17:25:00,67.8,57.3,30.30,NE,55,0.0,0.0,69,0.00,,---,0.00,25.00,VWS V14.01,2013-09-28 21:25:00,
2013-09-28 17:30:00,67.2,57.5,30.30,NE,55,0.0,0.0,71,0.00,,---,0.00,25.00,VWS V14.01,2013-09-28 21:30:00,
2013-09-28 17:35:00,66.8,58.6,30.30,NE,55,0.0,0.0,75,0.00,,---,0.00,19.00,VWS V14.01,2013-09-28 21:35:00,
2013-09-28 17:40:00,66.1,58.3,30.30,NE,55,0.0,0.0,76,0.00,,---,0.00,19.00,VWS V14.01,2013-09-28 21:40:00,
2013-09-28 17:45:00,65.5,58.5,30.30,NE,55,0.0,0.0,78,0.00,,---,0.00,21.00,VWS V14.01,2013-09-28 21:45:00,
2013-09-28 17:50:00,65.2,58.9,30.30,NE,55,0.0,0.0,80,0.00,,---,0.00,21.00,VWS V14.01,2013-09-28 21:50:00,
2013-09-28 17:55:00,64.9,58.6,30.30,NE,55,0.0,0.0,80,0.00,,---,0.00,19.00,VWS V14.01,2013-09-28 21:55:00,
2013-09-28 18:00:00,64.5,58.5,30.30,NE,55,0.0,0.0,81,0.00,,---,0.00,18.00,VWS V14.01,2013-09-28 22:00:00,
2013-09-28 18:05:00,63.8,58.2,30.30,NE,55,0.0,0.0,82,0.00,,---,0.00,16.00,VWS V14.01,2013-09-28 22:05:00,
2013-09-28 18:10:00,63.1,57.5,30.30,NE,55,0.0,0.0,82,0.00,,---,0.00,12.00,VWS V14.01,2013-09-28 22:10:00,
2013-09-28 18:15:00,62.6,57.4,30.30,NE,55,0.0,0.0,83,0.00,,---,0.00,12.00,VWS V14.01,2013-09-28 22:15:00,
2013-09-28 18:20:00,62.2,57.3,30.30,NE,55,0.0,0.0,84,0.00,,---,0.00,11.00,VWS V14.01,2013-09-28 22:20:00,
2013-09-28 18:25:00,61.7,57.2,30.30,NE,55,0.0,0.0,85,0.00,,---,0.00,7.00,VWS V14.01,2013-09-28 22:25:00,
2013-09-28 18:30:00,61.3,57.1,30.30,NE,55,0.0,0.0,86,0.00,,---,0.00,7.00,VWS V14.01,2013-09-28 22:30:00,
2013-09-28 18:35:00,60.7,56.5,30.30,NE,55,0.0,0.0,86,0.00,,---,0.00,5.00,VWS V14.01,2013-09-28 22:35:00,
2013-09-28 18:40:00,60.3,56.7,30.30,NE,55,0.0,0.0,88,0.00,,---,0.00,0.00,VWS V14.01,2013-09-28 22:40:00,
2013-09-28 18:45:00,59.9,56.3,30.30,NE,55,0.0,2.0,88,0.00,,---,0.00,0.00,VWS V14.01,2013-09-28 22:45:00,
2013-09-28 18:50:00,59.6,56.4,30.30,NE,55,0.0,2.0,89,0.00,,---,0.00,0.00,VWS V14.01,2013-09-28 22:50:00,
2013-09-28 18:55:00,59.3,56.4,30.30,NE,55,0.0,2.0,90,0.00,,---,0.00,0.00,VWS V14.01,2013-09-28 22:55:00,
2013-09-28 19:00:00,59.1,56.2,30.30,NE,55,0.0,2.0,90,0.00,,---,0.00,0.00,VWS V14.01,2013-09-28 23:00:00,
2013-09-28 19:05:00,58.8,55.9,30.30,NE,55,0.0,0.0,90,0.00,,---,0.00,0.00,VWS V14.01,2013-09-28 23:05:00,
2013-09-28 19:10:00,58.5,55.9,30.30,NE,55,0.0,0.0,91,0.00,,---,0.00,0.00,VWS V14.01,2013-09-28 23:10:00,
2013-09-28 19:15:00,58.2,55.6,30.30,NE,55,0.0,0.0,91,0.00,,---,0.00,0.00,VWS V14.01,2013-09-28 23:15:00,
2013-09-28 19:20:00,57.8,55.2,30.30,NE,55,0.0,0.0,91,0.00,,---,0.00,0.00,VWS V14.01,2013-09-28 23:20:00,
2013-09-28 19:25:00,57.6,55.3,30.30,NE,55,0.0,0.0,92,0.00,,---,0.00,0.00,VWS V14.01,2013-09-28 23:25:00,
2013-09-28 19:30:00,57.3,55.0,30.30,NE,55,0.0,0.0,92,0.00,,---,0.00,0.00,VWS V14.01,2013-09-28 23:30:00,
2013-09-28 19:35:00,57.0,54.7,30.30,NE,55,0.0,0.0,92,0.00,,---,0.00,0.00,VWS V14.01,2013-09-28 23:35:00,
2013-09-28 19:40:00,56.7,54.4,30.29,NE,55,0.0,0.0,92,0.00,,---,0.00,0.00,VWS V14.01,2013-09-28 23:40:00,
2013-09-28 19:45:00,56.5,54.2,30.30,NE,55,0.0,0.0,92,0.00,,---,0.00,0.00,VWS V14.01,2013-09-28 23:45:00,
2013-09-28 19:50:00,56.2,53.9,30.30,NE,55,0.0,0.0,92,0.00,,---,0.00,0.00,VWS V14.01,2013-09-28 23:50:00,
2013-09-28 19:55:00,56.0,54.0,30.30,NE,55,0.0,0.0,93,0.00,,---,0.00,0.00,VWS V14.01,2013-09-28 23:55:00,
2013-09-28 20:00:00,55.8,53.8,30.30,NE,55,0.0,0.0,93,0.00,,---,0.00,0.00,VWS V14.01,2013-09-29 00:00:00,
2013-09-28 20:05:00,55.5,53.5,30.30,NE,55,0.0,0.0,93,0.00,,---,0.00,0.00,VWS V14.01,2013-09-29 00:05:00,
2013-09-28 20:10:00,55.2,53.2,30.30,NE,55,0.0,0.0,93,0.00,,---,0.00,0.00,VWS V14.01,2013-09-29 00:10:00,
2013-09-28 20:15:00,54.9,52.9,30.30,NE,55,0.0,0.0,93,0.00,,---,0.00,0.00,VWS V14.01,2013-09-29 00:15:00,
2013-09-28 20:27:00,54.9,52.9,30.31,NE,55,0.0,0.0,93,0.00,,---,0.00,0.00,VWS V14.01,2013-09-29 00:27:00,
2013-09-28 20:30:00,57.2,54.9,30.30,NE,55,0.0,0.0,92,0.00,,---,0.00,0.00,VWS V14.01,2013-09-29 00:30:00,
2013-09-28 20:32:00,54.3,52.6,30.30,NE,55,0.0,0.0,94,0.00,,---,0.00,0.00,VWS V14.01,2013-09-29 00:32:00,
2013-09-28 20:37:00,54.3,52.6,30.31,NE,55,0.0,0.0,94,0.00,,---,0.00,0.00,VWS V14.01,2013-09-29 00:37:00,
2013-09-28 20:42:00,54.2,52.8,30.30,NE,55,0.0,0.0,95,0.00,,---,0.00,0.00,VWS V14.01,2013-09-29 00:42:00,
2013-09-28 20:47:00,54.1,52.7,30.30,NE,55,0.0,0.0,95,0.00,,---,0.00,0.00,VWS V14.01,2013-09-29 00:47:00,
2013-09-28 20:52:00,53.8,52.1,30.30,NE,55,0.0,0.0,94,0.00,,---,0.00,0.00,VWS V14.01,2013-09-29 00:52:00,
2013-09-28 20:57:00,53.5,51.8,30.30,NE,55,0.0,0.0,94,0.00,,---,0.00,0.00,VWS V14.01,2013-09-29 00:57:00,
2013-09-28 21:00:00,55.7,53.7,30.30,NE,55,0.0,0.0,93,0.00,,---,0.00,0.00,VWS V14.01,2013-09-29 01:00:00,
2013-09-28 21:02:00,53.3,51.6,30.30,NE,55,0.0,0.0,94,0.00,,---,0.00,0.00,VWS V14.01,2013-09-29 01:02:00,
2013-09-28 21:07:00,53.1,51.7,30.30,NE,55,0.0,0.0,95,0.00,,---,0.00,0.00,VWS V14.01,2013-09-29 01:07:00,
2013-09-28 21:12:00,52.9,51.2,30.30,NE,55,0.0,0.0,94,0.00,,---,0.00,0.00,VWS V14.01,2013-09-29 01:12:00,
2013-09-28 21:17:00,52.7,51.3,30.30,NE,55,0.0,0.0,95,0.00,,---,0.00,0.00,VWS V14.01,2013-09-29 01:17:00,
2013-09-28 21:27:00,52.7,51.3,30.30,NE,55,0.0,0.0,95,0.00,,---,0.00,0.00,VWS V14.01,2013-09-29 01:27:00,
2013-09-28 21:30:00,54.3,52.6,30.30,NE,55,0.0,0.0,94,0.00,,---,0.00,0.00,VWS V14.01,2013-09-29 01:30:00,
2013-09-28 21:32:00,52.6,51.2,30.30,NE,55,0.0,0.0,95,0.00,,---,0.00,0.00,VWS V14.01,2013-09-29 01:32:00,
2013-09-28 21:37:00,52.5,51.1,30.30,NE,55,0.0,0.0,95,0.00,,---,0.00,0.00,VWS V14.01,2013-09-29 01:37:00,
2013-09-28 21:42:00,52.2,50.8,30.30,NE,55,0.0,0.0,95,0.00,,---,0.00,0.00,VWS V14.01,2013-09-29 01:42:00,
2013-09-28 21:47:00,51.9,50.5,30.30,NE,55,0.0,0.0,95,0.00,,---,0.00,0.00,VWS V14.01,2013-09-29 01:47:00,
2013-09-28 21:52:00,51.6,50.2,30.30,NE,55,0.0,0.0,95,0.00,,---,0.00,0.00,VWS V14.01,2013-09-29 01:52:00,
2013-09-28 21:58:00,51.4,50.0,30.30,NE,55,0.0,0.0,95,0.00,,---,0.00,0.00,VWS V14.01,2013-09-29 01:58:00,
2013-09-28 22:00:00,53.3,51.6,30.30,NE,55,0.0,0.0,94,0.00,,---,0.00,0.00,VWS V14.01,2013-09-29 02:00:00,
2013-09-28 22:03:00,51.3,49.9,30.30,NE,55,0.0,0.0,95,0.00,,---,0.00,0.00,VWS V14.01,2013-09-29 02:03:00,
2013-09-28 22:08:00,51.1,49.7,30.30,NE,55,0.0,0.0,95,0.00,,---,0.00,0.00,VWS V14.01,2013-09-29 02:08:00,
2013-09-28 22:13:00,51.0,49.6,30.30,NE,55,0.0,0.0,95,0.00,,---,0.00,0.00,VWS V14.01,2013-09-29 02:13:00,
2013-09-28 22:18:00,51.0,49.9,30.30,NE,55,0.0,0.0,96,0.00,,---,0.00,0.00,VWS V14.01,2013-09-29 02:18:00,
2013-09-28 22:23:00,50.9,49.8,30.30,NE,55,0.0,0.0,96,0.00,,---,0.00,0.00,VWS V14.01,2013-09-29 02:23:00,
2013-09-28 22:28:00,50.9,49.8,30.30,NE,55,0.0,0.0,96,0.00,,---,0.00,0.00,VWS V14.01,2013-09-29 02:28:00,
2013-09-28 22:30:00,52.6,51.2,30.30,NE,55,0.0,0.0,95,0.00,,---,0.00,0.00,VWS V14.01,2013-09-29 02:30:00,
2013-09-28 22:33:00,50.9,49.8,30.30,NE,55,0.0,0.0,96,0.00,,---,0.00,0.00,VWS V14.01,2013-09-29 02:33:00,
2013-09-28 22:38:00,50.9,49.8,30.30,NE,55,0.0,0.0,96,0.00,,---,0.00,0.00,VWS V14.01,2013-09-29 02:38:00,
2013-09-28 22:43:00,50.8,49.7,30.30,NE,55,0.0,0.0,96,0.00,,---,0.00,0.00,VWS V14.01,2013-09-29 02:43:00,
2013-09-28 22:48:00,50.6,49.5,30.30,NE,55,0.0,0.0,96,0.00,,---,0.00,0.00,VWS V14.01,2013-09-29 02:48:00,
2013-09-28 22:53:00,50.4,49.3,30.30,NE,55,0.0,0.0,96,0.00,,---,0.00,0.00,VWS V14.01,2013-09-29 02:53:00,
2013-09-28 22:58:00,50.5,49.4,30.29,NE,55,0.0,0.0,96,0.00,,---,0.00,0.00,VWS V14.01,2013-09-29 02:58:00,
2013-09-28 23:00:00,51.3,49.9,30.30,NE,55,0.0,0.0,95,0.00,,---,0.00,0.00,VWS V14.01,2013-09-29 03:00:00,
2013-09-28 23:03:00,50.5,49.4,30.29,NE,55,0.0,0.0,96,0.00,,---,0.00,0.00,VWS V14.01,2013-09-29 03:03:00,
2013-09-28 23:08:00,50.6,49.8,30.29,NE,55,0.0,0.0,97,0.00,,---,0.00,0.00,VWS V14.01,2013-09-29 03:08:00,
2013-09-28 23:13:00,50.2,49.1,30.29,NE,55,0.0,0.0,96,0.00,,---,0.00,0.00,VWS V14.01,2013-09-29 03:13:00,
2013-09-28 23:18:00,49.7,48.6,30.29,NE,55,0.0,0.0,96,0.00,,---,0.00,0.00,VWS V14.01,2013-09-29 03:18:00,
2013-09-28 23:23:00,49.5,48.4,30.29,NE,55,0.0,0.0,96,0.00,,---,0.00,0.00,VWS V14.01,2013-09-29 03:23:00,
2013-09-28 23:28:00,49.3,48.2,30.29,NE,55,0.0,0.0,96,0.00,,---,0.00,0.00,VWS V14.01,2013-09-29 03:28:00,
2013-09-28 23:30:00,50.9,49.8,30.30,NE,55,0.0,0.0,96,0.00,,---,0.00,0.00,VWS V14.01,2013-09-29 03:30:00,
2013-09-28 23:33:00,49.1,48.0,30.29,NE,55,0.0,0.0,96,0.00,,---,0.00,0.00,VWS V14.01,2013-09-29 03:33:00,
2013-09-28 23:38:00,48.9,47.8,30.29,NE,55,0.0,0.0,96,0.00,,---,0.00,0.00,VWS V14.01,2013-09-29 03:38:00,
2013-09-28 23:43:00,48.8,47.7,30.28,NE,55,0.0,0.0,96,0.00,,---,0.00,0.00,VWS V14.01,2013-09-29 03:43:00,
2013-09-28 23:48:00,48.7,47.6,30.28,NE,55,0.0,0.0,96,0.00,,---,0.00,0.00,VWS V14.01,2013-09-29 03:48:00,
2013-09-28 23:53:00,48.6,47.5,30.28,NE,55,0.0,0.0,96,0.00,,---,0.00,0.00,VWS V14.01,2013-09-29 03:53:00,
2013-09-28 23:58:00,48.6,47.5,30.28,NE,55,0.0,0.0,96,0.00,,---,0.00,0.00,VWS V14.01,2013-09-29 03:58:00,